STARLINK-11488, 62222

Orbit data source: Space-Track

STARLINK-11488, 62222 is a payload satellite owned by SpaceX/Seattle (US) in LEO that was launched on Thu, 05 Dec 2024 UTC via an FALCON 9 launch vehicle from the Air Force Western Test Range (AFWTR). Payloads include a variety of satellites, spacecraft, and rockets equipped with specific instruments for various scientific and technological missions. These include communications satellites like Starlink; space stations such as the ISS; scientific satellites like the Hubble; Earth observation satellites from companies like Planet Labs, Umbra, and HawkEye 360; GPS; miniature CubeSats for education and research; and military/defense satellites.

Loading next visibility...
STARLINK-11488 details
Identifier
62222, 2024-231E
Orbit
LEO
Last TLE update14 hours ago
Origin
Flag of USSpaceX/Seattle (US)
ManufacturerSpaceX/Seattle
MissionOperational spacecraft
Bus & MotorSTARLINK V2M, Unknown motor
Mass730 kg wet, ~700 kg dry
Launch date (UTC)
2024-12-05 (2 months ago)
Launch vehicle
FALCON 9
Launch site
Air Force Western Test Range (AFWTR)
Object type
Payload
Rocket body
Debris
Shape & HBRUnknown
Radar Cross SectionLarge (>1 m²)

Expand to show TLE details & history

TLE from 14 hours ago
0 STARLINK-11488
1 62222U 24231E   25025.21169603  .00008023  00000-0  70983-4 0  9992
2 62222  53.1572 315.0511 0001334  90.9780 269.1390 15.69721458  9253
Epoch: 2025-01-25T05:04Z
Definitive object data (Epoch: 2025-01-25T05:04:50.537Z)
Latitude-0.00006°
Longitude114.07673°
Altitude360.622 km
Speed7.694 km/s
True Right ascension21h 00m 12s
True Declination0° 00' 00"
Sunlit
Object was in daylight at TLE epoch
Visualization TLE readout
Latitude10.59855°
Longitude-76.90826°
Altitude359.569 km
Speed7.696 km/s
Apparent Right ascension08h 32m 01s
Apparent Declination-13° 53' 09"
Sunlit
Object is in full shadow
Visualization observer readout
Local Sidereal Time20:53:21
Azimuth11.688° NNE
Elevation-63.552°
Doppler factor1
Orbital elements
Apogee altitude360.854 km
Perigee altitude359.056 km
Semi-major axis6,738.092 km
Eccentricity0.0001334
Inclination53.1572°
RAAN315.0511°
Arg. of periapsis90.978°
True anomaly269.12372°
Mean anomaly269.139°
Eccentric anomaly269.13136°
Mean motion3.92408 °/min
BSTAR0.000070983
Orbital period91.74 mins
Loading maneuver chart data...
Loading historical data...
Loading historical data...
Loading historical data...
Loading historical data...
Loading historical data...
Loading historical data...
Loading historical data...

STARLINK-11488 Visibility forecast

Observer location: undefined°, undefined

Span
Click to sort rows by Start time (UTC) header in descending order
Start Az.
Max El. time (UTC)
Max El. Az.
Max El.
End time (UTC)
End Az.
5 mins2025-01-25 22:04:24.328Z235.174° WSW2025-01-25 22:07:24.328Z6.594° NNE42.667°2025-01-25 22:09:24.328Z45.21° ENE
4 mins2025-01-26 04:30:24.328Z322.1° NNW2025-01-26 04:31:24.328Z345.728° N38.522°2025-01-26 04:34:24.328Z120.701° SE
|